W4KUS-10 Weather Reports


Display with metric or nautical units.
time (UTC)temp
F
wind
direction
speed
MPH
gust
MPH
rain 1hr
in
rain 24hr
in
rain mn
in
humidity
%
barometer
mb
20260506035041 64 0.0 0.0 0.00 0.00 0.00 90 1016.8
20260506034540 64 0.0 0.0 0.00 0.00 0.00 90 1016.8
20260506034040 64 0.0 0.0 0.00 0.00 0.00 90 1016.8
20260506033540 64 0.0 0.0 0.00 0.00 0.00 89 1016.9
20260506033040 64 0.0 0.0 0.00 0.00 0.00 89 1017.0
20260506032540 64 0.0 0.0 0.00 0.00 0.00 89 1017.0
20260506032040 64 0.0 0.0 0.00 0.00 0.00 89 1017.0
20260506031540 63 0.0 0.0 0.00 0.00 0.00 89 1017.0
20260506031040 63 0.0 0.0 0.00 0.00 0.00 89 1017.1
20260506030540 63 0.0 0.0 0.00 0.00 0.00 89 1017.1
20260506030040 63 0.0 0.0 0.00 0.00 0.00 88 1017.1
20260506025540 64 0.0 0.0 0.00 0.00 0.00 88 1017.1
20260506025040 64 0.0 0.0 0.00 0.00 0.00 88 1017.1
20260506024540 64 0.0 0.0 0.00 0.00 0.00 87 1017.1
20260506024040 64 0.0 0.0 0.00 0.00 0.00 87 1017.1
20260506023540 64 0.0 0.0 0.00 0.00 0.00 86 1017.1
20260506023040 64 0.0 0.0 0.00 0.00 0.00 86 1017.1
20260506022540 64 0.0 0.0 0.00 0.00 0.00 86 1017.0
20260506022040 64 0.0 0.0 0.00 0.00 0.00 85 1017.0
20260506021540 65 0.0 0.0 0.00 0.00 0.00 85 1017.0
20260506021040 65 0.0 0.0 0.00 0.00 0.00 84 1017.0
20260506020540 65 0.0 0.0 0.00 0.00 0.00 84 1017.1
20260506020040 65 0.0 0.0 0.00 0.00 0.00 83 1017.1
20260506015540 65 0.0 0.0 0.00 0.00 0.00 83 1017.0
20260506015040 66 0.0 0.0 0.00 0.00 0.00 82 1017.0
20260506014540 66 0.0 0.0 0.00 0.00 0.00 82 1017.0
20260506014040 66 0.0 0.0 0.00 0.00 0.00 81 1017.0
20260506013540 66 0.0 0.0 0.00 0.00 0.00 80 1017.0
20260506013040 67 0.0 0.0 0.00 0.00 0.00 80 1017.0
20260506012540 67 0.0 0.0 0.00 0.00 0.00 79 1017.0
20260506012040 67 0.0 0.0 0.00 0.00 0.00 78 1017.0
20260506011540 67 0.0 0.0 0.00 0.00 0.00 77 1017.1
20260506011040 68 295 0.0 1.0 0.00 0.00 0.00 77 1017.1
20260506010540 68 303 0.0 1.0 0.00 0.00 0.00 76 1017.0
20260506010040 68 299 0.0 1.0 0.00 0.00 0.00 76 1016.9
20260506005540 68 297 0.0 1.0 0.00 0.00 0.00 75 1016.9
20260506005040 68 0.0 0.0 0.00 0.00 0.00 74 1016.9
20260506004540 68 292 0.0 2.0 0.00 0.00 0.00 73 1016.9
20260506004040 69 0.0 0.0 0.00 0.00 0.00 72 1016.8
20260506003540 69 0.0 0.0 0.00 0.00 0.00 71 1016.8
20260506003040 69 234 0.0 2.0 0.00 0.00 0.00 71 1016.7
20260506002540 69 288 0.0 3.0 0.00 0.00 0.00 70 1016.7
20260506002040 69 267 0.0 2.0 0.00 0.00 0.00 69 1016.7
20260506001540 70 273 0.0 2.0 0.00 0.00 0.00 68 1016.7
20260506001040 70 265 0.0 2.0 0.00 0.00 0.00 67 1016.7
20260506000541 70 283 1.0 4.0 0.00 0.00 0.00 67 1016.6
20260506000040 70 304 0.0 2.0 0.00 0.00 0.00 66 1016.7
20260505235540 70 281 0.0 3.0 0.00 0.00 0.00 65 1016.7
20260505235040 71 295 0.0 4.0 0.00 0.00 0.00 64 1016.7
20260505234540 71 305 1.0 5.0 0.00 0.00 0.00 64 1016.7
20260505234040 71 282 1.0 6.0 0.00 0.00 0.00 64 1016.7
20260505233540 71 262 1.0 5.0 0.00 0.00 0.00 63 1016.7
20260505233040 71 322 0.0 3.0 0.00 0.00 0.00 63 1016.7
20260505232540 72 327 0.0 1.0 0.00 0.00 0.00 62 1016.7
20260505232040 72 296 1.0 4.0 0.00 0.00 0.00 61 1016.7
20260505231540 72 283 2.0 10.0 0.00 0.00 0.00 61 1016.8
20260505231040 72 285 2.0 5.0 0.00 0.00 0.00 61 1016.8
20260505230540 72 295 1.0 7.0 0.00 0.00 0.00 61 1016.8
20260505230040 72 255 2.0 10.0 0.00 0.00 0.00 60 1016.9
20260505225540 73 283 2.0 10.0 0.00 0.00 0.00 59 1016.9
20260505225040 73 276 3.0 9.0 0.00 0.00 0.00 59 1016.9
20260505224540 73 250 2.0 6.0 0.00 0.00 0.00 59 1017.1
20260505224040 74 284 1.0 8.0 0.00 0.00 0.00 58 1017.1
20260505223540 74 291 2.0 9.0 0.00 0.00 0.00 57 1017.1
20260505223040 74 250 2.0 9.0 0.00 0.00 0.00 57 1017.0
20260505222540 75 280 2.0 8.0 0.00 0.00 0.00 55 1017.0
20260505222040 75 259 3.0 9.0 0.00 0.00 0.00 56 1017.0
20260505221540 75 274 3.0 8.0 0.00 0.00 0.00 55 1016.9
20260505221040 75 283 4.0 12.0 0.00 0.00 0.00 56 1016.8
20260505220540 75 260 2.0 8.0 0.00 0.00 0.00 56 1016.8
20260505220040 76 286 3.0 10.0 0.00 0.00 0.00 55 1016.7
20260505215540 76 267 4.0 10.0 0.00 0.00 0.00 54 1016.8
20260505215040 76 303 3.0 9.0 0.00 0.00 0.00 54 1016.8
20260505214540 77 292 1.0 8.0 0.00 0.00 0.00 55 1016.8
20260505214040 77 284 3.0 10.0 0.00 0.00 0.00 55 1016.9
20260505213540 77 281 2.0 10.0 0.00 0.00 0.00 55 1016.9
20260505213040 77 273 2.0 8.0 0.00 0.00 0.00 55 1016.9
20260505212540 76 271 3.0 9.0 0.00 0.00 0.00 56 1016.9
20260505212040 76 258 3.0 11.0 0.00 0.00 0.00 55 1016.9
20260505211540 76 255 4.0 16.0 0.00 0.00 0.00 54 1016.8
20260505211040 77 261 4.0 12.0 0.00 0.00 0.00 54 1016.8
20260505210540 77 282 3.0 12.0 0.00 0.00 0.00 53 1016.8
20260505210040 77 295 3.0 11.0 0.00 0.00 0.00 53 1016.7
20260505205540 77 259 3.0 11.0 0.00 0.00 0.00 54 1016.7
20260505205040 77 249 4.0 12.0 0.00 0.00 0.00 54 1016.6
20260505204540 77 252 4.0 13.0 0.00 0.00 0.00 54 1016.6
20260505204040 77 266 3.0 8.0 0.00 0.00 0.00 54 1016.6
20260505203540 78 259 3.0 10.0 0.00 0.00 0.00 54 1016.6
20260505203040 78 264 4.0 10.0 0.00 0.00 0.00 53 1016.6
20260505202540 78 263 3.0 9.0 0.00 0.00 0.00 54 1016.7
20260505202040 78 258 3.0 9.0 0.00 0.00 0.00 54 1016.9
20260505201540 78 261 3.0 12.0 0.00 0.00 0.00 54 1016.9
20260505201040 78 266 3.0 10.0 0.00 0.00 0.00 53 1017.0
20260505200540 78 252 3.0 15.0 0.00 0.00 0.00 53 1017.1
20260505200040 78 272 2.0 6.0 0.00 0.00 0.00 56 1017.1
20260505195540 78 259 4.0 12.0 0.00 0.00 0.00 54 1017.1
20260505195040 78 273 3.0 11.0 0.00 0.00 0.00 54 1017.2
20260505194540 78 270 4.0 10.0 0.00 0.00 0.00 54 1017.3
20260505194040 78 276 3.0 10.0 0.00 0.00 0.00 54 1017.3
20260505193540 78 266 3.0 11.0 0.00 0.00 0.00 54 1017.4
20260505193040 78 276 3.0 10.0 0.00 0.00 0.00 54 1017.4
20260505192540 78 264 4.0 12.0 0.00 0.00 0.00 54 1017.4
20260505192040 78 279 4.0 10.0 0.00 0.00 0.00 53 1017.4
20260505191540 78 275 4.0 12.0 0.00 0.00 0.00 54 1017.4
20260505191040 78 265 4.0 10.0 0.00 0.00 0.00 54 1017.5
20260505190540 78 272 4.0 11.0 0.00 0.00 0.00 54 1017.5
20260505190040 78 272 5.0 15.0 0.00 0.00 0.00 54 1017.5
20260505185540 78 256 5.0 15.0 0.00 0.00 0.00 54 1017.7
20260505185040 78 277 4.0 11.0 0.00 0.00 0.00 52 1017.8
20260505184540 79 276 4.0 13.0 0.00 0.00 0.00 52 1017.8
20260505184040 79 250 4.0 11.0 0.00 0.00 0.00 52 1017.7
20260505183540 79 278 3.0 13.0 0.00 0.00 0.00 52 1017.8
20260505183040 79 253 5.0 10.0 0.00 0.00 0.00 50 1017.8
20260505182540 79 266 4.0 11.0 0.00 0.00 0.00 50 1017.8
20260505182040 79 268 4.0 10.0 0.00 0.00 0.00 49 1017.9
20260505181540 79 262 3.0 10.0 0.00 0.00 0.00 49 1017.8
20260505181040 79 262 4.0 13.0 0.00 0.00 0.00 48 1017.8
20260505180540 79 281 2.0 12.0 0.00 0.00 0.00 49 1017.8
20260505180040 79 283 4.0 15.0 0.00 0.00 0.00 47 1017.8
20260505175540 79 293 4.0 11.0 0.00 0.00 0.00 47 1017.8
20260505175040 79 253 4.0 12.0 0.00 0.00 0.00 48 1017.8
20260505174540 79 264 4.0 11.0 0.00 0.00 0.00 47 1017.9
20260505174040 79 249 5.0 11.0 0.00 0.00 0.00 48 1017.9
20260505173540 79 267 3.0 12.0 0.00 0.00 0.00 50 1017.9
20260505173040 79 264 4.0 10.0 0.00 0.00 0.00 49 1017.8
20260505172540 79 253 4.0 13.0 0.00 0.00 0.00 50 1017.8
20260505172040 79 266 6.0 15.0 0.00 0.00 0.00 49 1017.9
20260505171540 79 267 4.0 14.0 0.00 0.00 0.00 51 1018.0
20260505171040 79 264 4.0 16.0 0.00 0.00 0.00 50 1018.0
20260505170540 78 257 3.0 11.0 0.00 0.00 0.00 50 1017.9
20260505170040 79 272 4.0 13.0 0.00 0.00 0.00 50 1017.9
20260505165540 79 279 4.0 16.0 0.00 0.00 0.00 50 1017.9
20260505165040 79 275 4.0 11.0 0.00 0.00 0.00 50 1017.9
20260505164540 79 272 4.0 11.0 0.00 0.00 0.00 50 1017.9
20260505164040 79 260 3.0 8.0 0.00 0.00 0.00 51 1018.0
20260505163540 79 276 4.0 16.0 0.00 0.00 0.00 50 1018.0
20260505163040 79 264 5.0 11.0 0.00 0.00 0.00 51 1018.1
20260505162540 78 259 3.0 11.0 0.00 0.00 0.00 53 1018.1
20260505162040 78 261 5.0 12.0 0.00 0.00 0.00 51 1018.2
20260505161540 78 269 4.0 13.0 0.00 0.00 0.00 52 1018.2
20260505161040 79 257 3.0 13.0 0.00 0.00 0.00 52 1018.2
20260505160540 79 279 3.0 10.0 0.00 0.00 0.00 52 1018.3
20260505153040 79 267 2.0 9.0 0.00 0.00 0.00 54 1018.0
20260505152540 79 256 4.0 10.0 0.00 0.00 0.00 52 1018.1
20260505152040 79 283 2.0 9.0 0.00 0.00 0.00 53 1018.2
20260505151540 79 259 2.0 9.0 0.00 0.00 0.00 53 1018.1
20260505151040 78 262 3.0 10.0 0.00 0.00 0.00 53 1018.0
20260505150540 78 285 3.0 9.0 0.00 0.00 0.00 53 1018.0
20260505140540 75 333 0.0 4.0 0.00 0.00 0.00 57 1017.8
20260505125040 71 314 1.0 5.0 0.00 0.00 0.00 69 1017.5
20260505124540 71 314 1.0 4.0 0.00 0.00 0.00 71 1017.3
20260505124040 70 259 0.0 1.0 0.00 0.00 0.00 74 1017.3
20260505123540 68 285 0.0 1.0 0.00 0.00 0.00 76 1017.4
20260505123040 67 324 0.0 3.0 0.00 0.00 0.00 80 1017.3
20260505122540 66 20 0.0 1.0 0.00 0.00 0.00 84 1017.3
20260505122040 64 320 1.0 3.0 0.00 0.00 0.00 88 1017.3
20260505121540 63 290 0.0 2.0 0.00 0.00 0.00 93 1017.3
20260505121040 62 346 0.0 0.0 0.00 0.00 0.00 95 1017.3
20260505120540 60 0.0 0.0 0.00 0.00 0.00 95 1017.3
20260505120040 59 344 0.0 2.0 0.00 0.00 0.00 95 1017.2
20260505115540 58 0.0 0.0 0.00 0.00 0.00 95 1017.2
20260505115040 58 0.0 0.0 0.00 0.00 0.00 95 1017.1
20260505114540 57 0.0 0.0 0.00 0.00 0.00 95 1017.2
20260505114040 57 0.0 0.0 0.00 0.00 0.00 95 1017.1
20260505113540 56 0.0 0.0 0.00 0.00 0.00 95 1017.0
20260505113040 56 0.0 0.0 0.00 0.00 0.00 95 1016.9
20260505112540 55 0.0 0.0 0.00 0.00 0.00 95 1016.9
20260505112041 55 0.0 0.0 0.00 0.00 0.00 95 1016.8
20260505111540 55 0.0 0.0 0.00 0.00 0.00 95 1016.8
20260505111040 55 0.0 0.0 0.00 0.00 0.00 95 1016.8
20260505110540 54 0.0 0.0 0.00 0.00 0.00 95 1016.7
20260505102040 54 0.0 0.0 0.00 0.00 0.00 94 1016.2
20260505101540 54 0.0 0.0 0.00 0.00 0.00 94 1016.2
20260505101040 54 0.0 0.0 0.00 0.00 0.00 93 1016.1
20260505100540 54 0.0 0.0 0.00 0.00 0.00 93 1016.1
20260505100040 54 0.0 0.0 0.00 0.00 0.00 93 1016.1
20260505095540 54 0.0 0.0 0.00 0.00 0.00 93 1016.0
20260505095040 54 0.0 0.0 0.00 0.00 0.00 93 1015.9
20260505094540 54 0.0 0.0 0.00 0.00 0.00 93 1015.9
20260505094040 54 0.0 0.0 0.00 0.00 0.00 93 1015.9
20260505093540 55 0.0 0.0 0.00 0.00 0.00 93 1015.8
20260505093040 55 0.0 0.0 0.00 0.00 0.00 93 1015.8
20260505092540 55 0.0 0.0 0.00 0.00 0.00 93 1015.7
20260505092040 55 0.0 0.0 0.00 0.00 0.00 93 1015.7
20260505091540 55 0.0 0.0 0.00 0.00 0.00 93 1015.6
20260505091040 55 0.0 0.0 0.00 0.00 0.00 93 1015.6
20260505090540 55 0.0 0.0 0.00 0.00 0.00 93 1015.6
20260505090040 55 0.0 0.0 0.00 0.00 0.00 92 1015.5
20260505085540 55 0.0 0.0 0.00 0.00 0.00 92 1015.5
20260505085040 55 0.0 0.0 0.00 0.00 0.00 92 1015.5
20260505084540 55 0.0 0.0 0.00 0.00 0.00 92 1015.6
20260505084040 55 0.0 0.0 0.00 0.00 0.00 92 1015.6
20260505083540 55 0.0 0.0 0.00 0.00 0.00 92 1015.6
20260505083040 55 0.0 0.0 0.00 0.00 0.00 91 1015.6
20260505082540 55 0.0 0.0 0.00 0.00 0.00 91 1015.6
20260505082040 56 0.0 0.0 0.00 0.00 0.00 91 1015.6
20260505081540 56 0.0 0.0 0.00 0.00 0.00 91 1015.6
20260505081040 56 0.0 0.0 0.00 0.00 0.00 91 1015.6
20260505080540 56 0.0 0.0 0.00 0.00 0.00 91 1015.6
20260505080040 56 0.0 0.0 0.00 0.00 0.00 90 1015.5
20260505075540 56 0.0 0.0 0.00 0.00 0.00 90 1015.5
20260505075040 56 0.0 0.0 0.00 0.00 0.00 90 1015.5
20260505074540 56 0.0 0.0 0.00 0.00 0.00 90 1015.5
20260505074040 56 0.0 0.0 0.00 0.00 0.00 89 1015.5
20260505073540 57 0.0 0.0 0.00 0.00 0.00 89 1015.4
20260505073040 57 0.0 0.0 0.00 0.00 0.00 89 1015.4
20260505072540 57 0.0 0.0 0.00 0.00 0.00 89 1015.5
20260505072040 57 0.0 0.0 0.00 0.00 0.00 89 1015.5
20260505071540 57 0.0 0.0 0.00 0.00 0.00 88 1015.4
20260505071040 57 0.0 0.0 0.00 0.00 0.00 88 1015.5
20260505070540 58 0.0 0.0 0.00 0.00 0.00 88 1015.4
20260505070040 58 0.0 0.0 0.00 0.00 0.00 87 1015.4
20260505065540 58 0.0 0.0 0.00 0.00 0.00 87 1015.5
20260505065040 58 0.0 0.0 0.00 0.00 0.00 87 1015.6
20260505064540 58 0.0 0.0 0.00 0.00 0.00 86 1015.6
20260505064040 59 0.0 0.0 0.00 0.00 0.00 86 1015.7
20260505063540 59 335 0.0 0.0 0.00 0.00 0.00 85 1015.7
20260505063040 59 0.0 0.0 0.00 0.00 0.00 85 1015.7
20260505062540 59 0.0 0.0 0.00 0.00 0.00 85 1015.8
20260505062040 59 0.0 0.0 0.00 0.00 0.00 84 1015.8
20260505061540 60 0.0 0.0 0.00 0.00 0.00 84 1015.8
20260505061040 60 0.0 0.0 0.00 0.00 0.00 84 1015.9
20260505060540 60 0.0 0.0 0.00 0.00 0.00 84 1016.0
20260505060040 60 324 0.0 1.0 0.00 0.00 0.00 84 1016.1
20260505055540 60 0.0 0.0 0.00 0.00 0.00 84 1016.1
20260505055040 60 325 0.0 1.0 0.00 0.00 0.00 84 1016.2
20260505054540 59 5 0.0 2.0 0.00 0.00 0.00 84 1016.2
20260505054040 59 352 0.0 2.0 0.00 0.00 0.00 85 1016.3
20260505053540 59 344 0.0 1.0 0.00 0.00 0.00 85 1016.4
20260505053040 59 299 0.0 2.0 0.00 0.00 0.00 86 1016.4
20260505052540 58 333 1.0 3.0 0.00 0.00 0.00 87 1016.4
20260505052040 58 330 1.0 4.0 0.00 0.00 0.00 87 1016.4
20260505051540 58 321 0.0 3.0 0.00 0.00 0.00 87 1016.4
20260505051040 58 0.0 0.0 0.00 0.00 0.00 87 1016.5
20260505050540 58 0.0 0.0 0.00 0.00 0.00 86 1016.5
20260505041540 59 0.0 0.0 0.00 0.00 0.00 83 1016.7
20260505041040 59 0.0 0.0 0.00 0.00 0.00 83 1016.7
20260505040540 59 0.0 0.0 0.00 0.00 0.00 82 1016.7
20260505040040 59 0.0 0.0 0.00 0.00 0.00 82 1016.7
20260505035540 59 0.0 0.0 0.00 0.00 0.00 81 1016.7